SCP
0 0 0 0 0 0 0 0 0 0 0 0 0 0 0 0 0 0 0 0 0 0 0 0 0 0 0 0 0 0 0 0
0 0 0 0 0 0 0 0 0 0 0 0 0 0 0 0 0 0 0 0 0 0 0 0 0 0 0 0 0 0 0 0
0 0 0 0 0 0 0 0 0 0 0 0 0 0 0 0 0 0 0 0 0 0 0 0 0 0 0 0 0 0 0 0
0 0 0 0 0 0 0 0 0 0 0 0 0 0 0 0 0 0 0 0 0 0 0 0 0 0 0 0 0 0 0 0
0 0 0 0 0 0 0 0 0 0 0 0 0 0 0 0 0 0 0 0 -0 0 0 0 0 0 0 0 0 0 0 0
0 0 0 0 0 0 0 0 0 0 0 0 0 0 0 0 0 0 0 0 -0 0 0 0 0 0 0 0 0 0 0 0
-0 -0 0 0 0 0 0 0 0 -0 -0 0 0 0 0 0 0 0 0 0 0 -0 0 0 0 0 0 0 0 0 0 0
-0 -0 -0 0 0 0 -0 -0 0 0 -0 -0 -0 -0 0 0 0 0 0 0 0 0 0 0 0 0 0 0 0 0 0 0
-0 -0 -0 0 0 0 0 0 0 0 -0 -0 -0 -0 0 0 0 0 0 0 0 0 0 0 0 0 0 0 0 0 0 0
0 0 0 0 0 0 0 0 0 0 0 -0 -0 -0 0 0 0 0 0 0 0 0 0 0 0 0 0 0 0 0 0 0
0 0 0 0 0 0 0 0 0 0 0 0 0 0 0 0 0 0 0 0 0 0 0 0 0 0 0 0 0 0 0 0
0 0 0 0 0 0 0 0 0 0 0 0 0 0 0 0 0 0 0 0 0 0 0 0 -0 0 0 0 0 0 0 0
0 0 0 0 0 0 0 0 0 0 0 0 0 0 0 0 0 0 0 0 0 0 0 0 0 0 0 0 0 0 0 0
0 0 0 0 0 0 0 0 0 0 0 0 0 0 0 0 0 0 0 0 0 0 0 0 0 0 0 0 0 0 0 0
0 0 0 0 0 0 0 0 0 0 0 0 0 0 0 0 0 0 0 0 0 0 0 0 0 0 0 0 0 0 0 0
0 0 0 0 0 0 0 0 0 0 0 0 0 0 0 0 0 0 0 0 0 0 0 0 -0 0 0 0 0 0 0 0
0 0 0 0 0 0 0 0 0 0 0 0 0 0 0 0 0 0 0 -0 0 0 0 -0 0 0 0 0 0 0 0 0
0 0 0 0 0 0 0 0 0 0 0 0 0 0 0 0 0 0 -0 0 0 0 -0 0 0 0 -0 0 0 0 0 0
0 0 0 0 0 0 0 0 0 0 0 0 0 0 0 0 0 0 0 0 0 0 0 -0 -0 -0 -0 -0 -0 -0 0 0
0 0 0 0 0 0 0 0 0 0 0 0 0 0 0 0 0 0 0 0 0 0 0 0 0 0 0 0 0 0 0 0
Wind_Speed_500mb
43 42 38 29 26 25 26 23 20 11 10 5 1 4 10 14 17 22 22 25 27 24 22 32 35 48 42 36 25 29 12 27
37 34 36 28 22 18 13 12 8 6 2 1 4 9 13 16 14 14 19 25 27 25 20 25 21 24 27 18 31 40 40 37
34 30 29 25 24 23 17 12 11 10 7 7 9 12 20 24 22 23 24 25 28 29 27 24 22 29 33 33 23 26 33 38
27 24 22 21 22 22 17 16 16 12 11 10 12 22 23 20 25 23 20 15 19 24 25 21 21 24 26 30 36 39 43 45
26 25 25 20 21 22 24 25 28 27 21 18 18 20 24 22 27 27 26 33 36 31 19 13 15 14 15 20 25 30 36 40
26 20 20 19 21 24 30 30 33 39 18 15 22 27 26 26 19 26 24 27 37 28 28 23 25 27 27 23 20 22 28 34
25 20 20 18 18 22 26 27 36 31 27 20 40 42 36 25 15 17 19 27 25 32 40 31 37 35 31 23 18 21 23 22
17 20 16 11 9 16 24 26 28 22 19 32 42 36 33 21 11 16 16 16 23 31 34 38 35 32 28 27 30 25 24 19
13 10 0 8 7 19 20 19 25 25 26 44 46 40 32 27 21 23 24 26 22 26 32 29 31 33 28 24 29 31 27 24
2 6 6 8 7 12 15 22 27 32 44 50 47 41 30 27 29 26 24 26 25 28 27 28 33 28 26 23 25 28 28 21
3 2 3 10 6 12 23 23 27 35 48 46 44 48 42 35 30 28 24 26 26 27 30 33 30 22 23 19 18 18 19 15
4 9 10 6 9 12 7 20 34 44 42 44 42 39 35 30 29 26 22 22 23 27 33 32 23 28 21 16 11 11 14 10
5 15 4 5 6 8 19 28 33 37 45 44 40 36 33 32 34 32 24 23 25 27 26 26 21 15 15 11 10 7 7 7
5 6 7 5 3 13 26 37 41 44 51 41 45 42 34 36 33 29 27 22 22 18 16 14 9 8 10 9 8 7 6 10
14 12 6 12 18 25 35 44 34 34 38 39 46 44 40 32 31 30 25 20 15 9 7 6 9 9 14 14 8 5 4 9
19 14 11 14 26 35 40 28 33 35 43 42 38 38 35 31 35 30 19 14 12 19 13 10 12 15 14 17 14 10 8 11
14 10 14 25 29 28 29 30 32 39 51 40 33 37 44 38 30 24 18 12 21 18 18 16 18 18 27 29 25 21 14 19
11 10 20 25 27 24 20 27 34 38 44 38 35 30 31 33 29 24 16 22 22 19 22 18 17 14 21 23 27 27 21 18
10 15 22 21 19 18 23 28 33 36 42 43 40 34 34 25 25 20 19 23 17 12 15 15 14 13 15 19 22 23 23 24
14 20 21 23 18 17 21 30 29 38 40 39 42 38 31 32 27 24 18 13 12 12 13 14 13 7 9 10 12 17 18 21
Wind_Direction_500mb
91 85 80 72 68 74 67 77 93 93 116 124 155 272 266 275 280 265 268 264 259 260 260 259 257 267 261 288 249 225 250 258
90 84 84 85 76 65 78 68 52 47 74 240 262 276 295 305 299 284 270 273 280 283 285 271 265 254 248 263 270 252 258 246
87 85 92 93 91 89 81 82 75 62 34 14 343 330 313 313 318 299 288 281 288 291 290 285 267 261 277 287 267 235 231 238
94 98 92 83 74 59 62 60 58 56 44 37 16 355 358 344 343 342 338 344 348 329 312 304 289 281 270 265 265 262 261 262
99 94 89 79 61 50 46 37 25 14 0 358 7 348 332 327 339 337 335 335 344 342 328 331 317 309 290 278 273 274 270 266
99 87 74 63 52 44 44 35 15 14 353 329 342 323 312 312 329 307 311 318 326 338 349 325 332 324 308 306 303 302 294 280
99 75 63 50 39 36 26 18 17 22 17 6 4 356 327 319 311 295 312 323 319 331 328 317 312 309 304 312 307 312 311 298
94 67 46 22 2 16 17 12 17 16 9 1 355 349 340 342 325 330 326 303 304 314 307 307 305 300 297 295 299 311 316 324
102 80 356 284 309 8 6 2 2 356 348 348 351 343 322 320 309 315 294 295 305 308 311 312 320 312 302 302 299 297 302 313
129 251 234 312 10 11 344 341 349 345 347 349 348 338 329 317 307 316 303 300 301 297 308 316 323 323 310 304 299 294 290 305
176 12 299 322 270 349 353 342 334 339 345 343 345 339 336 327 323 324 329 318 306 293 299 316 320 323 320 320 308 281 280 290
205 343 25 16 341 346 334 331 343 346 347 341 338 341 344 338 330 327 325 313 302 288 302 312 318 309 319 322 312 266 264 267
24 48 46 17 319 308 338 336 347 355 349 342 349 350 341 331 323 316 301 295 291 291 314 319 318 314 317 318 308 282 249 219
175 129 205 356 68 341 345 345 349 341 335 355 352 349 346 340 336 334 335 323 294 304 316 327 350 10 356 331 320 315 259 204
124 130 60 15 358 348 340 337 353 4 360 353 347 339 334 344 350 345 339 340 348 321 338 48 48 13 4 344 322 259 181 191
109 92 56 13 354 349 1 22 12 11 3 356 3 9 5 358 352 350 355 350 27 43 53 57 64 54 31 46 58 90 128 135
116 82 25 3 358 18 22 17 17 9 4 4 6 13 16 8 14 15 25 28 58 51 56 52 67 64 77 76 80 76 94 117
112 33 14 16 24 29 30 22 16 7 6 12 10 8 9 15 28 38 33 72 70 53 64 62 52 74 77 77 77 78 89 113
91 40 24 32 35 40 34 23 11 16 17 17 20 24 21 16 30 46 41 61 64 50 50 47 63 67 80 67 72 72 87 99
64 27 31 42 41 44 30 23 25 21 11 18 20 27 29 34 34 33 34 47 45 53 50 42 37 34 91 97 72 72 64 64
Wind_Speed_850mb
43 42 38 29 26 25 26 23 20 11 10 5 1 4 10 14 17 22 22 25 27 24 22 32 35 48 42 36 25 29 12 27
37 34 36 28 22 18 13 12 8 6 2 1 4 9 13 16 14 14 19 25 27 25 20 25 21 24 27 18 31 40 40 37
34 30 29 25 24 23 17 12 11 10 7 7 9 12 20 24 22 23 24 25 28 29 27 24 22 29 33 33 23 26 33 38
27 24 22 21 22 22 17 16 16 12 11 10 12 22 23 20 25 23 20 15 19 24 25 21 21 24 26 30 36 39 43 45
26 25 25 20 21 22 24 25 28 27 21 18 18 20 24 22 27 27 26 33 36 31 19 13 15 14 15 20 25 30 36 40
26 20 20 19 21 24 30 30 33 39 18 15 22 27 26 26 19 26 24 27 37 28 28 23 25 27 27 23 20 22 28 34
25 20 20 18 18 22 26 27 36 31 27 20 40 42 36 25 15 17 19 27 25 32 40 31 37 35 31 23 18 21 23 22
17 20 16 11 9 16 24 26 28 22 19 32 42 36 33 21 11 16 16 16 23 31 34 38 35 32 28 27 30 25 24 19
13 10 0 8 7 19 20 19 25 25 26 44 46 40 32 27 21 23 24 26 22 26 32 29 31 33 28 24 29 31 27 24
2 6 6 8 7 12 15 22 27 32 44 50 47 41 30 27 29 26 24 26 25 28 27 28 33 28 26 23 25 28 28 21
3 2 3 10 6 12 23 23 27 35 48 46 44 48 42 35 30 28 24 26 26 27 30 33 30 22 23 19 18 18 19 15
4 9 10 6 9 12 7 20 34 44 42 44 42 39 35 30 29 26 22 22 23 27 33 32 23 28 21 16 11 11 14 10
5 15 4 5 6 8 19 28 33 37 45 44 40 36 33 32 34 32 24 23 25 27 26 26 21 15 15 11 10 7 7 7
5 6 7 5 3 13 26 37 41 44 51 41 45 42 34 36 33 29 27 22 22 18 16 14 9 8 10 9 8 7 6 10
14 12 6 12 18 25 35 44 34 34 38 39 46 44 40 32 31 30 25 20 15 9 7 6 9 9 14 14 8 5 4 9
19 14 11 14 26 35 40 28 33 35 43 42 38 38 35 31 35 30 19 14 12 19 13 10 12 15 14 17 14 10 8 11
14 10 14 25 29 28 29 30 32 39 51 40 33 37 44 38 30 24 18 12 21 18 18 16 18 18 27 29 25 21 14 19
11 10 20 25 27 24 20 27 34 38 44 38 35 30 31 33 29 24 16 22 22 19 22 18 17 14 21 23 27 27 21 18
10 15 22 21 19 18 23 28 33 36 42 43 40 34 34 25 25 20 19 23 17 12 15 15 14 13 15 19 22 23 23 24
14 20 21 23 18 17 21 30 29 38 40 39 42 38 31 32 27 24 18 13 12 12 13 14 13 7 9 10 12 17 18 21
Wind_Direction_850mb
91 85 80 72 68 74 67 77 93 93 116 124 155 272 266 275 280 265 268 264 259 260 260 259 257 267 261 288 249 225 250 258
90 84 84 85 76 65 78 68 52 47 74 240 262 276 295 305 299 284 270 273 280 283 285 271 265 254 248 263 270 252 258 246
87 85 92 93 91 89 81 82 75 62 34 14 343 330 313 313 318 299 288 281 288 291 290 285 267 261 277 287 267 235 231 238
94 98 92 83 74 59 62 60 58 56 44 37 16 355 358 344 343 342 338 344 348 329 312 304 289 281 270 265 265 262 261 262
99 94 89 79 61 50 46 37 25 14 0 358 7 348 332 327 339 337 335 335 344 342 328 331 317 309 290 278 273 274 270 266
99 87 74 63 52 44 44 35 15 14 353 329 342 323 312 312 329 307 311 318 326 338 349 325 332 324 308 306 303 302 294 280
99 75 63 50 39 36 26 18 17 22 17 6 4 356 327 319 311 295 312 323 319 331 328 317 312 309 304 312 307 312 311 298
94 67 46 22 2 16 17 12 17 16 9 1 355 349 340 342 325 330 326 303 304 314 307 307 305 300 297 295 299 311 316 324
102 80 356 284 309 8 6 2 2 356 348 348 351 343 322 320 309 315 294 295 305 308 311 312 320 312 302 302 299 297 302 313
129 251 234 312 10 11 344 341 349 345 347 349 348 338 329 317 307 316 303 300 301 297 308 316 323 323 310 304 299 294 290 305
176 12 299 322 270 349 353 342 334 339 345 343 345 339 336 327 323 324 329 318 306 293 299 316 320 323 320 320 308 281 280 290
205 343 25 16 341 346 334 331 343 346 347 341 338 341 344 338 330 327 325 313 302 288 302 312 318 309 319 322 312 266 264 267
24 48 46 17 319 308 338 336 347 355 349 342 349 350 341 331 323 316 301 295 291 291 314 319 318 314 317 318 308 282 249 219
175 129 205 356 68 341 345 345 349 341 335 355 352 349 346 340 336 334 335 323 294 304 316 327 350 10 356 331 320 315 259 204
124 130 60 15 358 348 340 337 353 4 360 353 347 339 334 344 350 345 339 340 348 321 338 48 48 13 4 344 322 259 181 191
109 92 56 13 354 349 1 22 12 11 3 356 3 9 5 358 352 350 355 350 27 43 53 57 64 54 31 46 58 90 128 135
116 82 25 3 358 18 22 17 17 9 4 4 6 13 16 8 14 15 25 28 58 51 56 52 67 64 77 76 80 76 94 117
112 33 14 16 24 29 30 22 16 7 6 12 10 8 9 15 28 38 33 72 70 53 64 62 52 74 77 77 77 78 89 113
91 40 24 32 35 40 34 23 11 16 17 17 20 24 21 16 30 46 41 61 64 50 50 47 63 67 80 67 72 72 87 99
64 27 31 42 41 44 30 23 25 21 11 18 20 27 29 34 34 33 34 47 45 53 50 42 37 34 91 97 72 72 64 64